Date String (YYYY-MM-DD hh:mm:ss) UTC,Instrument flags,absolute air pressure of the measurement (hPa),sample flow rate (lpm),inlet stack bypass flow (lpm),air temperature of the measurement (°C),ambient temperature measured by the external sensor (°C),aerosol sample conditioner tube jacket temperature (°C),OPC LED temperature (°C),internal box temperature (°C),relative humidity of the measurement (%),span deviation,mass concentration of particles derived from Lorenz-Mie calculation of OPC scattering (μg/m³),mass concentration of particles derived from Lorenz-Mie calculation of OPC scattering (μg/m³),mass concentration of particles derived from Lorenz-Mie calculation of OPC scattering (μg/m³)
DateTimeUTC,F1_M11,P_M11,Q1_M11,Q2_M11,T1_M11,T2_M11,T3_M11,T4_M11,T5_M11,U1_M11,ZSPAN_M11,X0_M11,X2_M11,X1_M11
2024-05-16 00:00:00,SystemResetWarning,0827.2,5.01,000.00,024.4,022.0,000.0,032.9,025.4,023.4,0000.0,0011.33,0002.22,0001.64
2024-05-16 00:01:00,SystemResetWarning,0827.2,5.02,000.00,024.2,022.0,000.0,032.8,025.3,024.0,0000.0,0010.68,0002.23,0001.66
2024-05-16 00:02:00,SystemResetWarning,0827.2,4.99,000.00,024.2,022.3,000.0,032.7,025.5,023.6,0000.0,0010.27,0002.25,0001.67
2024-05-16 00:03:00,SystemResetWarning,0827.2,5.00,000.00,024.2,022.6,000.0,032.6,025.7,023.9,0000.0,0010.18,0002.22,0001.66
2024-05-16 00:04:00,SystemResetWarning,0827.3,5.00,000.00,024.3,022.9,000.0,032.6,025.9,024.2,0000.0,0010.08,0002.16,0001.64
2024-05-16 00:05:00,SystemResetWarning,0827.3,5.00,000.00,024.3,023.2,000.0,032.6,026.1,024.5,0000.0,0008.91,0002.11,0001.62
2024-05-16 00:06:00,SystemResetWarning,0827.4,5.01,000.00,024.4,023.5,000.0,032.6,026.2,023.6,0000.0,0006.42,0002.11,0001.60
2024-05-16 00:07:00,SystemResetWarning,0827.4,5.00,000.00,024.4,023.7,000.0,032.6,026.3,023.4,0000.0,0004.86,0002.06,0001.58
2024-05-16 00:08:00,SystemResetWarning,0827.4,4.99,000.00,024.5,023.9,000.0,032.6,026.4,023.3,0000.0,0004.45,0001.96,0001.56
2024-05-16 00:09:00,SystemResetWarning,0827.4,4.99,000.00,024.6,024.0,000.0,032.7,026.5,023.4,0000.0,0004.46,0001.92,0001.53
2024-05-16 00:10:00,SystemResetWarning,0827.4,5.00,000.00,024.7,024.2,000.0,032.7,026.6,022.6,0000.0,0004.36,0001.90,0001.52
2024-05-16 00:11:00,SystemResetWarning,0827.4,5.00,000.00,024.7,024.3,000.0,032.7,026.7,022.7,0000.0,0004.50,0001.92,0001.50
2024-05-16 00:12:00,SystemResetWarning,0827.7,5.00,000.00,024.8,024.1,000.0,032.8,026.6,023.0,0000.0,0004.49,0001.90,0001.47
2024-05-16 00:13:00,SystemResetWarning,0827.4,5.00,000.00,024.5,022.3,000.0,032.9,025.6,023.3,0000.0,0006.05,0001.88,0001.44
2024-05-16 00:14:00,SystemResetWarning,0827.4,5.01,000.00,024.2,021.8,000.0,032.9,025.2,024.8,0000.0,0005.73,0001.87,0001.44
2024-05-16 00:15:00,SystemResetWarning,0827.4,5.01,000.00,024.2,022.1,000.0,032.8,025.3,025.5,0000.0,0006.01,0001.86,0001.41
2024-05-16 00:16:00,SystemResetWarning,0827.4,4.99,000.00,024.2,022.4,000.0,032.7,025.6,026.2,0000.0,0006.90,0001.81,0001.37
2024-05-16 00:17:00,SystemResetWarning,0827.4,4.99,000.00,024.2,022.8,000.0,032.6,025.8,026.0,0000.0,0008.16,0001.79,0001.34
2024-05-16 00:18:00,SystemResetWarning,0827.4,5.00,000.00,024.3,023.1,000.0,032.6,026.0,025.2,0000.0,0008.47,0001.75,0001.29
2024-05-16 00:19:00,SystemResetWarning,0827.4,5.01,000.00,024.4,023.4,000.0,032.6,026.1,025.5,0000.0,0008.51,0001.73,0001.25
2024-05-16 00:20:00,SystemResetWarning,0827.4,5.00,000.00,024.4,023.6,000.0,032.6,026.3,025.4,0000.0,0008.39,0001.69,0001.21
2024-05-16 00:21:00,SystemResetWarning,0827.4,4.98,000.00,024.5,023.8,000.0,032.6,026.4,025.5,0000.0,0008.44,0001.62,0001.16
2024-05-16 00:22:00,SystemResetWarning,0827.4,5.00,000.00,024.6,024.0,000.0,032.7,026.5,025.2,0000.0,0009.32,0001.56,0001.11
2024-05-16 00:23:00,SystemResetWarning,0827.4,5.01,000.00,024.6,024.2,000.0,032.7,026.6,025.3,0000.0,0009.22,0001.50,0001.06
2024-05-16 00:24:00,SystemResetWarning,0827.4,5.00,000.00,024.7,024.2,000.0,032.7,026.6,025.3,0000.0,0008.68,0001.45,0001.01
2024-05-16 00:25:00,SystemResetWarning,0827.4,4.99,000.00,024.6,022.6,000.0,032.8,025.8,025.5,0000.0,0008.61,0001.43,0000.97
2024-05-16 00:26:00,SystemResetWarning,0827.4,5.01,000.00,024.2,021.6,000.0,032.8,025.2,026.2,0000.0,0008.68,0001.37,0000.95
2024-05-16 00:27:00,SystemResetWarning,0827.4,5.00,000.00,024.1,021.9,000.0,032.8,025.2,026.3,0000.0,0008.57,0001.38,0000.95
2024-05-16 00:28:00,SystemResetWarning,0827.4,4.98,000.00,024.1,022.2,000.0,032.6,025.4,026.6,0000.0,0007.69,0001.38,0000.95
2024-05-16 00:29:00,SystemResetWarning,0827.4,4.99,000.00,024.1,022.6,000.0,032.6,025.6,026.5,0000.0,0007.77,0001.39,0000.94
2024-05-16 00:30:00,SystemResetWarning,0827.4,5.00,000.00,024.2,022.9,000.0,032.5,025.8,026.5,0000.0,0007.78,0001.42,0000.94
2024-05-16 00:31:00,SystemResetWarning,0827.4,5.01,000.00,024.3,023.2,000.0,032.5,026.0,026.5,0000.0,0007.95,0001.42,0000.94
2024-05-16 00:32:00,SystemResetWarning,0827.5,5.01,000.00,024.3,023.5,000.0,032.5,026.2,026.4,0000.0,0008.94,0001.43,0000.92
2024-05-16 00:33:00,SystemResetWarning,0827.5,5.01,000.00,024.4,023.7,000.0,032.5,026.3,026.0,0000.0,0008.55,0001.38,0000.92
2024-05-16 00:34:00,SystemResetWarning,0827.5,4.99,000.00,024.5,023.9,000.0,032.6,026.4,026.4,0000.0,0008.63,0001.41,0000.92
2024-05-16 00:35:00,SystemResetWarning,0827.9,4.99,000.00,024.6,024.0,000.0,032.6,026.5,026.4,0000.0,0008.65,0001.38,0000.92
2024-05-16 00:36:00,SystemResetWarning,0827.8,5.00,000.00,024.6,024.2,000.0,032.6,026.6,026.2,0000.0,0008.56,0001.34,0000.91
2024-05-16 00:37:00,SystemResetWarning,0827.6,5.00,000.00,024.7,024.0,000.0,032.7,026.5,026.0,0000.0,0009.29,0001.34,0000.91
2024-05-16 00:38:00,SystemResetWarning,0827.6,5.00,000.00,024.4,022.2,000.0,032.8,025.6,026.2,0000.0,0009.04,0001.32,0000.91
2024-05-16 00:39:00,SystemResetWarning,0827.4,5.01,000.00,024.2,021.6,000.0,032.8,025.2,026.7,0000.0,0009.23,0001.35,0000.90
2024-05-16 00:40:00,SystemResetWarning,0827.5,5.00,000.00,024.1,021.9,000.0,032.7,025.2,026.6,0000.0,0008.66,0001.35,0000.90
2024-05-16 00:41:00,SystemResetWarning,0827.6,5.00,000.00,024.1,022.3,000.0,032.6,025.5,026.2,0000.0,0008.76,0001.29,0000.90
2024-05-16 00:42:00,SystemResetWarning,0827.6,5.00,000.00,024.1,022.6,000.0,032.5,025.7,026.3,0000.0,0009.40,0001.28,0000.90
2024-05-16 00:43:00,SystemResetWarning,0827.5,4.99,000.00,024.2,023.0,000.0,032.5,025.9,026.2,0000.0,0008.74,0001.28,0000.90
2024-05-16 00:44:00,SystemResetWarning,0827.5,4.99,000.00,024.3,023.2,000.0,032.5,026.0,025.7,0000.0,0008.03,0001.30,0000.91
2024-05-16 00:45:00,SystemResetWarning,0827.6,5.00,000.00,024.3,023.5,000.0,032.5,026.1,025.5,0000.0,0008.59,0001.30,0000.91
2024-05-16 00:46:00,SystemResetWarning,0827.5,5.00,000.00,024.4,023.7,000.0,032.5,026.3,025.4,0000.0,0008.76,0001.30,0000.91
2024-05-16 00:47:00,SystemResetWarning,0827.6,5.02,000.00,024.5,023.9,000.0,032.5,026.4,025.3,0000.0,0008.60,0001.28,0000.90
2024-05-16 00:48:00,SystemResetWarning,0827.7,5.00,000.00,024.5,024.0,000.0,032.6,026.5,025.2,0000.0,0007.93,0001.29,0000.90
2024-05-16 00:49:00,SystemResetWarning,0827.7,5.01,000.00,024.6,024.2,000.0,032.6,026.6,025.4,0000.0,0007.43,0001.31,0000.91
2024-05-16 00:50:00,SystemResetWarning,0827.7,4.98,000.00,024.7,023.8,000.0,032.7,026.4,025.3,0000.0,0006.79,0001.27,0000.90
2024-05-16 00:51:00,SystemResetWarning,0827.7,5.00,000.00,024.4,022.0,000.0,032.7,025.3,025.7,0000.0,0006.38,0001.26,0000.90
2024-05-16 00:52:00,SystemResetWarning,0827.6,5.02,000.00,024.1,021.7,000.0,032.8,025.1,026.7,0000.0,0006.13,0001.26,0000.89
2024-05-16 00:53:00,SystemResetWarning,0827.7,4.98,000.00,024.0,022.0,000.0,032.6,025.2,027.0,0000.0,0004.79,0001.25,0000.88
2024-05-16 00:54:00,SystemResetWarning,0827.7,5.00,000.00,024.1,022.4,000.0,032.5,025.5,026.6,0000.0,0004.76,0001.25,0000.87
2024-05-16 00:55:00,SystemResetWarning,0827.7,5.01,000.00,024.1,022.7,000.0,032.5,025.7,026.6,0000.0,0004.90,0001.27,0000.87
2024-05-16 00:56:00,SystemResetWarning,0827.7,5.00,000.00,024.2,023.0,000.0,032.5,025.9,026.9,0000.0,0003.57,0001.26,0000.87
2024-05-16 00:57:00,SystemResetWarning,0827.7,4.99,000.00,024.2,023.3,000.0,032.5,026.0,026.9,0000.0,0002.53,0001.24,0000.87
2024-05-16 00:58:00,SystemResetWarning,0827.7,5.01,000.00,024.3,023.5,000.0,032.5,026.1,027.0,0000.0,0002.60,0001.25,0000.86
2024-05-16 00:59:00,SystemResetWarning,0827.7,5.02,000.00,024.4,023.7,000.0,032.5,026.3,026.6,0000.0,0003.02,0001.26,0000.86
